Regional Weather Roundup
Issued by NWS Newport/Morehead, NC

Current Version | Previous Version | Text Only | Print | Product List | Glossary On
Versions: 1 2 3 4 5 6 7 8 9 10 11 12 13 14 15 16 17 18 19 20 21 22 23 24 25 26 27 28 29 30 31 32 33 34 35 36 37 38 39 40 41 42 43 44 45 46 47 48 49 50
000
ASUS42 KMHX 290313
RWRMHX
WEATHER ROUNDUP FOR EASTERN NORTH CAROLINA
NATIONAL WEATHER SERVICE NEWPORT/MOREHEAD CITY NC
1100 PM EDT THU JUL 28 2016

NOTE: "FAIR" INDICATES FEW OR NO CLOUDS BELOW 12,000 FEET
WITH NO SIGNIFICANT WEATHER AND/OR OBSTRUCTIONS TO VISIBILITY

NCZ015>017-031-032-045>047-102-103-290400-
NORTH COAST

CITY           SKY/WX    TMP DP  RH WIND       PRES   REMARKS
EDENTON        CLEAR     87  75  66 SW13      29.85F
ELIZABETH CITY CLEAR     85  76  74 S12       29.82F
KITTY HAWK     PTCLDY    85  75  71 SW8       29.83F
MANTEO           N/A     85  79  81 SW17      29.85F

$$

NCZ045>047-081-094-103-104-290400-
CENTRAL COAST

CITY           SKY/WX    TMP DP  RH WIND       PRES   REMARKS
FRISCO         CLEAR     83  78  85 SW14      29.89F

$$

NCZ095-097-098-100-101-290400-
SOUTHERN COAST

CITY           SKY/WX    TMP DP  RH WIND       PRES   REMARKS
BEAUFORT       CLEAR     84  78  82 SW13      29.92R
CEDAR ISLAND   NOT AVBL
JACKSONVILLE   CLEAR     83  73  72 SW9       29.90S
PINEY ISLAND   NOT AVBL
WILMINGTON     CLEAR     83  75  77 SW12      29.92S


$$

NCZ011>013-027>030-043-044-078>080-089-090>093-098-290400-
COASTAL PLAIN

CITY           SKY/WX    TMP DP  RH WIND       PRES   REMARKS
AHOSKIE        CLEAR     81  74  78 CALM      29.83F
CLINTON        CLEAR     83  75  76 S3        29.90S
ELIZABETHTOWN  CLEAR     85  77  77 S7        29.91S
GOLDSBORO      CLEAR     86  73  66 S9        29.86S
GREENVILLE     CLEAR     86  72  62 SW9       29.89S
HAVELOCK       CLEAR     83  75  77 SW8       29.91R
KENANSVILLE    NOT AVBL
KINSTON        CLEAR     85  72  66 S9        29.89
NEW BERN       CLEAR     83  74  74 SW8       29.90S
RICHLANDS      CLEAR     82  75  79 S8        29.91S
ROCKY MOUNT    CLEAR     86  72  62 S13       29.85F
WASHINGTON     CLEAR     84  73  68 SW12      29.87F
WHITEVILLE     CLEAR     83  77  81 S6        29.92S

$$

AMZ130-135-150-152-154-156-158-170-250-252-270-ANZ085-086-088-633-658-670-290400-
MARINE OBSERVATIONS

STATION/POSITION TIME  TEMP    WIND        PRES    WAVE   SWELL
                       AIR SEA DIR/SP/G            HT/PER HT/PER
                 (UTC) (F)     (DEG/KT/KT) (MB)    (FT/S) (FT/S)
CHESAPEAKE LIGHT NOT AVBL
64 E VA BEACH    0250   84 81  200/ 14/ 16 1009.9    2/ 4   2/ 8
DUCK             0200                      1010.0
2 E DUCK         0211      78                N/A     1/ 7
OREGON INLET     0200                      1011.5
13E OREGON INLT  0300      82                N/A     2/ 4   2/ 7
HATTERAS CG      0200                      1012.2
DIAMOND BUOY     0250   86 85  240/ 19/ 23 1012.5    4/ 4   2/ 7
CAPE LOOKOUT     0300   84     230/ 11/ 14 1012.7
BEAUFORT LAB     0200                      1012.2
30 SE NEW RVR IN 0208   85 85  230/ 19/ 25 1013.1
30 SE NEW RVR IN 0225      85                N/A     5/ 5
27 SE WRIGHTSVLE 0208   85 85  220/ 17/ 23 1013.5
5 SE WRIGHTSVLE  0208   83 80  240/ 14/ 17 1014.1
225 S CAPE HAT   0250   84 85  250/ 10/ 12 1015.7    3/ 6   3/ 6
41 SE CHARLESTON 0250   87 86  210/ 17/ 19 1014.2    4/ 4   2/ 8

$$




USA.gov is the U.S. government's official web portal to all federal, state and local government web resources and services.